• Join FlightAware (Why Join?)
  • Login
  • US Flag 
04:19AM EDT


 

Airport Tracker/Info


-or-


 

Live Flight TrackerFlight Track Log ✈ N201SU ✈ 08-May-2013 ✈ KSUS - KIOW

Flight Track Log - Related Links

Times and Time Zones

All times are in EDT time to prevent confusion due to time zone crossing. See the N201SU flight status page for this flight to view local times or setup timezone preferences in your user account.

Time Position Orientation Groundspeed Altitude Reporting Facility
EDT Latitude Longitude Course Direction KTS MPH feet Rate Location/Type
12:04PM 38.6500 -90.7167 354° North 202 232 2,500  Level Gateway (St. Louis) TRACON
12:05PM 38.7000 -90.7500 333° Northwest 208 239 5,500 2,880 Climbing Gateway (St. Louis) TRACON
12:06PM 38.7303 -90.7497 360° North 212 244 6,300 2,580 Climbing Kansas City Center
12:07PM 38.8061 -90.7456 North 268 308 9,300 2,460 Climbing Kansas City Center
12:08PM 38.8889 -90.7336 North 292 336 11,500 1,980 Climbing Kansas City Center
12:09PM 38.9825 -90.7086 12° North 332 382 13,500 1,920 Climbing Kansas City Center
12:10PM 38.9719 -90.3789 354° North  Level FlightAware Approximate
12:10PM 39.0772 -90.7025 North 345 397 15,500  Level Kansas City Center
12:11PM 39.1694 -90.7450 340° North 351 404 16,900 1,020 Climbing Kansas City Center
12:12PM 39.2889 -90.7786 348° North 365 420 17,700 480 Climbing Kansas City Center
12:13PM 39.3878 -90.8111 346° North 366 421 18,000 120 Climbing Kansas City Center
12:14PM 39.4864 -90.8433 346° North 366 421 18,000  Level Kansas City Center
12:15PM 39.5844 -90.8733 347° North 364 419 18,000  Level Kansas City Center
12:16PM 39.6828 -90.9050 346° North 364 419 18,000  Level Kansas City Center
12:17PM 39.7847 -90.9356 347° North 364 419 18,000  Level Kansas City Center
12:18PM 39.8922 -90.9711 346° North 363 418 18,000  Level Kansas City Center
12:19PM 39.9900 -91.0044 345° North 365 420 18,000  Level Kansas City Center
12:20PM 40.0881 -91.0328 348° North 364 419 18,000  Level Kansas City Center
12:21PM 40.1847 -91.0703 343° North 366 421 18,000  Level Kansas City Center
12:22PM 40.2975 -91.1003 349° North 361 415 18,000  Level Kansas City Center
12:23PM 40.3972 -91.1369 344° North 366 421 18,000  Level Kansas City Center
12:24PM 40.4961 -91.1678 347° North 366 421 18,000  Level Kansas City Center
12:25PM 40.5933 -91.2008 346° North 363 418 18,000  Level Kansas City Center
12:26PM 40.6950 -91.2339 346° North 366 421 18,000  Level Chicago Center
12:27PM 40.7944 -91.2681 345° North 366 421 18,000 -420 Level Chicago Center
12:28PM 40.8950 -91.3022 346° North 370 426 17,200 -1,380 Descending Chicago Center
12:29PM 40.9939 -91.3339 346° North 365 420 15,200 -2,040 Descending Chicago Center
12:30PM 41.1078 -91.3708 346° North 352 405 13,000 -1,920 Descending Chicago Center
12:31PM 41.1997 -91.4025 345° North 343 395 11,300 -960 Descending Chicago Center
12:32PM 41.2853 -91.4314 346° North 340 391 11,100 -600 Descending Chicago Center
12:33PM 41.3603 -91.4594 344° North 281 323 10,100 -1,140 Descending Chicago Center
12:34PM 41.4428 -91.4919 344° North 260 299 8,800 -1,500 Descending Chicago Center
12:35PM 41.5050 -91.5167 343° North 261 300 7,100 -1,680 Descending Chicago Center
12:37PM 41.5889 -91.5185 346° North  Level FlightAware Approximate
12:44PM 41.6333 -91.5333 346° North  Level FlightAware Approximate
12:45PM 41.6398 -91.5481 346° North  Level Estimated
12:46PM 41.6398 -91.5481 346° North  Level Estimated
12:47PM 41.6398 -91.5481 346° North  Level Estimated